Regional Weather Roundup
Issued by NWS Goodland, KS

Home | Current Version | Previous Version | Text Only | Print | Product List | Glossary Off
Versions: 1 2 3 4 5 6 7 8 9 10 11 12 13 14 15 16 17 18 19 20 21 22 23 24 25 26 27 28 29 30 31 32 33 34 35 36 37 38 39 40 41 42 43 44 45 46 47 48 49 50

000
ASUS43 KGLD 292259
RWRGLD

GOODLAND FORECAST AREA HOURLY WEATHER ROUNDUP
NATIONAL WEATHER SERVICE GOODLAND KS
400 PM MST THU JAN 29 2015

...OFFICIAL OBSERVATIONS...

CITY           SKY/WX    TMP DP  RH WIND       PRES   REMARKS
GOODLAND KS    SUNNY     47  18  31 N8        30.47R
HILL CITY KS   CLEAR     47  22  37 N8        30.48S
IMPERIAL NEB   CLEAR     45  19  35 NW5       30.47R
MCCOOK NEB     CLEAR     46  20  35 NW8       30.47R
AKRON CO       SUNNY     45  17  32 CALM      30.43F
BURLINGTON CO  SUNNY     48  10  21 N5        30.46R
LIMON CO       SUNNY     45  21  38 S5        30.43F
$$

...UNOFFICIAL OBSERVATIONS...

CITY           SKY/WX    TMP DP  RH WIND       PRES   REMARKS
COLBY KS       CLEAR     45  27  49 N8        30.48S
GOVE KS          N/A     46  32  58 MISG        N/A
NORTON KS      CLEAR     45  18  33 NW6       30.46S
SHARON SPRINGS   N/A     48  17  28 N5G12       N/A
KIT CARSON CO    N/A     50  21  32 MISG        N/A
YUMA CO          N/A     48  12  23 CALM        N/A
$$



USA.gov is the U.S. government's official web portal to all federal, state and local government web resources and services.